,,,PA_Meas_PMT16A,,PR_Meas_QMR101_102,,RH_Meas_QMH101,,SR_Meas_QMS101,,TA_Meas_QMH101,,GenWind,,GenWind,
date,time,status,PA,status,PR,status,RH,status,SR,status,TA,status,DirAvg,status,SpdAvg,
2009-03-15, 00:00:04,VALID,1011.28,VALID,0,VALID,88.8095,VALID,0,VALID,22.6809,VALID,43,VALID,0,
2009-03-15, 00:01:04,VALID,1011.29,VALID,0,VALID,88.8095,VALID,0,VALID,22.6809,VALID,43,VALID,0,
2009-03-15, 00:02:04,VALID,1011.3,VALID,0,VALID,88.8248,VALID,0,VALID,22.642,VALID,43,VALID,0,
2009-03-15, 00:03:04,VALID,1011.29,VALID,0,VALID,88.8248,VALID,0,VALID,22.6225,VALID,43,VALID,0,
2009-03-15, 00:04:04,VALID,1011.3,VALID,0,VALID,88.8324,VALID,0,VALID,22.603,VALID,43,VALID,0,
2009-03-15, 00:05:04,VALID,1011.31,VALID,0,VALID,88.8477,VALID,0,VALID,22.5835,VALID,43,VALID,0,
2009-03-15, 00:06:04,VALID,1011.3,VALID,0,VALID,88.8629,VALID,0,VALID,22.5835,VALID,43,VALID,0,
2009-03-15, 00:07:04,VALID,1011.29,VALID,0,VALID,88.8858,VALID,0,VALID,22.564,VALID,43,VALID,0,
2009-03-15, 00:08:04,VALID,1011.32,VALID,0,VALID,88.8782,VALID,0,VALID,22.5446,VALID,43,VALID,0,
2009-03-15, 00:09:04,VALID,1011.31,VALID,0,VALID,88.8782,VALID,0,VALID,22.5446,VALID,43,VALID,0,
2009-03-15, 00:10:04,VALID,1011.28,VALID,0,VALID,88.8934,VALID,0,VALID,22.4667,VALID,43,VALID,0,
2009-03-15, 00:11:04,VALID,1011.27,VALID,0,VALID,88.9163,VALID,0,VALID,22.4861,VALID,43,VALID,0,
2009-03-15, 00:12:04,VALID,1011.28,VALID,0,VALID,88.9468,VALID,0,VALID,22.4667,VALID,43,VALID,0,
2009-03-15, 00:13:04,VALID,1011.23,VALID,0,VALID,88.9544,VALID,0,VALID,22.4861,VALID,43,VALID,0,
2009-03-15, 00:14:04,VALID,1011.24,VALID,0,VALID,88.962,VALID,0,VALID,22.5073,VALID,43,VALID,0,
2009-03-15, 00:15:04,VALID,1011.2,VALID,0,VALID,89.0002,VALID,0,VALID,22.4861,VALID,43,VALID,0,
2009-03-15, 00:16:04,VALID,1011.2,VALID,0,VALID,89.0078,VALID,0,VALID,22.4861,VALID,43,VALID,0,
2009-03-15, 00:17:04,VALID,1011.18,VALID,0,VALID,89.0154,VALID,0,VALID,22.4667,VALID,43,VALID,0,
2009-03-15, 00:18:04,VALID,1011.18,VALID,0,VALID,89.0307,VALID,0,VALID,22.4667,VALID,43,VALID,0,
2009-03-15, 00:19:04,VALID,1011.16,VALID,0,VALID,89.0154,VALID,0,VALID,22.4667,VALID,43,VALID,0,
2009-03-15, 00:20:04,VALID,1011.16,VALID,0,VALID,89.0307,VALID,0,VALID,22.4472,VALID,43,VALID,0,
2009-03-15, 00:21:04,VALID,1011.14,VALID,0,VALID,89.0612,VALID,0,VALID,22.4472,VALID,43,VALID,0,
2009-03-15, 00:22:04,VALID,1011.13,VALID,0,VALID,89.0917,VALID,0,VALID,22.4472,VALID,43,VALID,0,
2009-03-15, 00:23:04,VALID,1011.14,VALID,0,VALID,89.0764,VALID,0,VALID,22.4277,VALID,43,VALID,0,
2009-03-15, 00:24:04,VALID,1011.09,VALID,0,VALID,89.0917,VALID,0,VALID,22.4277,VALID,43,VALID,0,
2009-03-15, 00:25:04,VALID,1011.1,VALID,0,VALID,89.0841,VALID,0,VALID,22.4082,VALID,43,VALID,0,
2009-03-15, 00:26:04,VALID,1011.08,VALID,0,VALID,89.1222,VALID,0,VALID,22.3887,VALID,43,VALID,0,
2009-03-15, 00:27:04,VALID,1011.07,VALID,0,VALID,89.1222,VALID,0,VALID,22.3693,VALID,43,VALID,0,
2009-03-15, 00:28:04,VALID,1011.04,VALID,0,VALID,89.1374,VALID,0,VALID,22.3498,VALID,43,VALID,0,
2009-03-15, 00:29:04,VALID,1011.04,VALID,0,VALID,89.1451,VALID,0,VALID,22.3108,VALID,43,VALID,0,
2009-03-15, 00:30:04,VALID,1011.05,VALID,0,VALID,89.1679,VALID,0,VALID,22.2719,VALID,43,VALID,0,
2009-03-15, 00:31:04,VALID,1011.04,VALID,0,VALID,89.1679,VALID,0,VALID,22.2329,VALID,43,VALID,0,
2009-03-15, 00:32:04,VALID,1011.04,VALID,0,VALID,89.1908,VALID,0,VALID,22.2329,VALID,43,VALID,0,
2009-03-15, 00:33:04,VALID,1011.03,VALID,0,VALID,89.2213,VALID,0,VALID,22.2507,VALID,43,VALID,0,
2009-03-15, 00:34:04,VALID,1011.03,VALID,0,VALID,89.2213,VALID,0.105969,VALID,22.2702,VALID,43,VALID,0,
2009-03-15, 00:35:04,VALID,1011.01,VALID,0,VALID,89.2442,VALID,0.105969,VALID,22.2897,VALID,43,VALID,0,
2009-03-15, 00:36:04,VALID,1011.01,VALID,0,VALID,89.2442,VALID,0,VALID,22.3091,VALID,43,VALID,0,
2009-03-15, 00:37:04,VALID,1011,VALID,0,VALID,89.2518,VALID,0.105969,VALID,22.3091,VALID,43,VALID,0,
2009-03-15, 00:38:04,VALID,1011,VALID,0,VALID,89.2594,VALID,0.105969,VALID,22.3286,VALID,43,VALID,0,
2009-03-15, 00:39:04,VALID,1010.99,VALID,0,VALID,89.2747,VALID,0.105969,VALID,22.3286,VALID,43,VALID,0,
2009-03-15, 00:40:04,VALID,1010.96,VALID,0,VALID,89.3128,VALID,0.105969,VALID,22.3481,VALID,43,VALID,0,
2009-03-15, 00:41:04,VALID,1010.96,VALID,0,VALID,89.3128,VALID,0,VALID,22.3481,VALID,43,VALID,0,
2009-03-15, 00:42:04,VALID,1010.93,VALID,0,VALID,89.3281,VALID,0.105969,VALID,22.3481,VALID,43,VALID,0,
2009-03-15, 00:43:04,VALID,1010.92,VALID,0,VALID,89.3281,VALID,0,VALID,22.3481,VALID,43,VALID,0,
2009-03-15, 00:44:04,VALID,1010.9,VALID,0,VALID,89.3586,VALID,0,VALID,22.3887,VALID,43,VALID,0,
2009-03-15, 00:45:04,VALID,1010.9,VALID,0,VALID,89.3738,VALID,0,VALID,22.387,VALID,43,VALID,0,
2009-03-15, 00:46:04,VALID,1010.87,VALID,0,VALID,89.3738,VALID,0,VALID,22.4082,VALID,43,VALID,0,
2009-03-15, 00:47:04,VALID,1010.86,VALID,0,VALID,89.3815,VALID,0,VALID,22.387,VALID,43,VALID,0,
2009-03-15, 00:48:04,VALID,1010.86,VALID,0,VALID,89.3891,VALID,0,VALID,22.387,VALID,43,VALID,0,
2009-03-15, 00:49:04,VALID,1010.85,VALID,0,VALID,89.3891,VALID,0,VALID,22.4082,VALID,43,VALID,0,
2009-03-15, 00:50:04,VALID,1010.84,VALID,0,VALID,89.3967,VALID,0,VALID,22.4082,VALID,43,VALID,0,
2009-03-15, 00:51:04,VALID,1010.85,VALID,0,VALID,89.4272,VALID,0.105969,VALID,22.387,VALID,43,VALID,0,
2009-03-15, 00:52:04,VALID,1010.83,VALID,0,VALID,89.4272,VALID,0,VALID,22.3887,VALID,43,VALID,0,
2009-03-15, 00:53:04,VALID,1010.82,VALID,0,VALID,89.4425,VALID,0,VALID,22.3887,VALID,43,VALID,0,
2009-03-15, 00:54:04,VALID,1010.81,VALID,0,VALID,89.4348,VALID,0,VALID,22.3481,VALID,43,VALID,0,
2009-03-15, 00:55:04,VALID,1010.8,VALID,0,VALID,89.4425,VALID,0,VALID,22.2897,VALID,43,VALID,0,
2009-03-15, 00:56:04,VALID,1010.78,VALID,0,VALID,89.4806,VALID,0,VALID,22.2914,VALID,43,VALID,0,
2009-03-15, 00:57:04,VALID,1010.8,VALID,0,VALID,89.473,VALID,0,VALID,22.2507,VALID,43,VALID,0,
2009-03-15, 00:58:04,VALID,1010.79,VALID,0,VALID,89.4806,VALID,0,VALID,22.2507,VALID,43,VALID,0,
2009-03-15, 00:59:04,VALID,1010.78,VALID,0,VALID,89.473,VALID,0.105969,VALID,22.2507,VALID,43,VALID,0,
2009-03-15, 01:00:04,VALID,1010.75,VALID,0,VALID,89.4882,VALID,0,VALID,22.2719,VALID,43,VALID,0,
2009-03-15, 01:01:04,VALID,1010.77,VALID,0,VALID,89.4882,VALID,0,VALID,22.2702,VALID,43,VALID,0,
2009-03-15, 01:02:04,VALID,1010.72,VALID,0,VALID,89.5111,VALID,0,VALID,22.2702,VALID,43,VALID,0,
2009-03-15, 01:03:04,VALID,1010.74,VALID,0,VALID,89.4958,VALID,0,VALID,22.2914,VALID,43,VALID,0,
2009-03-15, 01:04:04,VALID,1010.73,VALID,0,VALID,89.5035,VALID,0,VALID,22.3108,VALID,43,VALID,0,
2009-03-15, 01:05:04,VALID,1010.71,VALID,0,VALID,89.534,VALID,0,VALID,22.3108,VALID,43,VALID,0,
2009-03-15, 01:06:04,VALID,1010.67,VALID,0,VALID,89.534,VALID,0,VALID,22.3303,VALID,43,VALID,0,
2009-03-15, 01:07:04,VALID,1010.62,VALID,0,VALID,89.5187,VALID,0,VALID,22.3108,VALID,43,VALID,0,
2009-03-15, 01:08:04,VALID,1010.63,VALID,0,VALID,89.5416,VALID,0,VALID,22.2702,VALID,43,VALID,0,
2009-03-15, 01:09:04,VALID,1010.57,VALID,0,VALID,89.5492,VALID,0,VALID,22.2914,VALID,43,VALID,0,
2009-03-15, 01:10:04,VALID,1010.52,VALID,0,VALID,89.5568,VALID,0,VALID,22.3108,VALID,43,VALID,0,
2009-03-15, 01:11:04,VALID,1010.49,VALID,0,VALID,89.5492,VALID,0,VALID,22.2897,VALID,43,VALID,0,
2009-03-15, 01:12:04,VALID,1010.45,VALID,0,VALID,89.5492,VALID,0,VALID,22.3286,VALID,43,VALID,0,
2009-03-15, 01:13:04,VALID,1010.41,VALID,0,VALID,89.5645,VALID,0,VALID,22.3498,VALID,43,VALID,0,
2009-03-15, 01:14:04,VALID,1010.39,VALID,0,VALID,89.595,VALID,0,VALID,22.3693,VALID,43,VALID,0,
2009-03-15, 01:15:04,VALID,1010.37,VALID,0,VALID,89.5645,VALID,0,VALID,22.3693,VALID,43,VALID,0,
2009-03-15, 01:16:04,VALID,1010.31,VALID,0,VALID,89.6102,VALID,0,VALID,22.3676,VALID,43,VALID,0,
2009-03-15, 01:17:04,VALID,1010.28,VALID,0,VALID,89.6026,VALID,0,VALID,22.4082,VALID,43,VALID,0,
2009-03-15, 01:18:04,VALID,1010.29,VALID,0,VALID,89.6026,VALID,0.105969,VALID,22.387,VALID,43,VALID,0,
2009-03-15, 01:19:04,VALID,1010.27,VALID,0,VALID,89.6179,VALID,0,VALID,22.387,VALID,43,VALID,0,
2009-03-15, 01:20:04,VALID,1010.26,VALID,0,VALID,89.6026,VALID,0,VALID,22.3887,VALID,43,VALID,0,
2009-03-15, 01:21:04,VALID,1010.24,VALID,0,VALID,89.6255,VALID,0,VALID,22.387,VALID,43,VALID,0,
2009-03-15, 01:22:04,VALID,1010.25,VALID,0,VALID,89.6407,VALID,0,VALID,22.4082,VALID,43,VALID,0,
2009-03-15, 01:23:04,VALID,1010.23,VALID,0,VALID,89.6255,VALID,0,VALID,22.4082,VALID,43,VALID,0,
2009-03-15, 01:24:04,VALID,1010.23,VALID,0,VALID,89.6407,VALID,0,VALID,22.3887,VALID,43,VALID,0,
2009-03-15, 01:25:04,VALID,1010.2,VALID,0,VALID,89.6484,VALID,0,VALID,22.4065,VALID,43,VALID,0,
2009-03-15, 01:26:04,VALID,1010.17,VALID,0,VALID,89.6484,VALID,0,VALID,22.4082,VALID,43,VALID,0,
2009-03-15, 01:27:04,VALID,1010.15,VALID,0,VALID,89.6331,VALID,0,VALID,22.4082,VALID,43,VALID,0,
2009-03-15, 01:28:04,VALID,1010.13,VALID,0,VALID,89.6484,VALID,0,VALID,22.3481,VALID,43,VALID,0,
2009-03-15, 01:29:04,VALID,1010.11,VALID,0,VALID,89.6484,VALID,0,VALID,22.3887,VALID,43,VALID,0,
2009-03-15, 01:30:04,VALID,1010.1,VALID,0,VALID,89.6789,VALID,0,VALID,22.3693,VALID,43,VALID,0,
2009-03-15, 01:31:04,VALID,1010.1,VALID,0,VALID,89.6789,VALID,0,VALID,22.3498,VALID,43,VALID,0,
2009-03-15, 01:32:04,VALID,1010.05,VALID,0,VALID,89.6941,VALID,0,VALID,22.3091,VALID,43,VALID,0,
2009-03-15, 01:33:04,VALID,1010.08,VALID,0,VALID,89.6865,VALID,0,VALID,22.3303,VALID,43,VALID,0,
2009-03-15, 01:34:04,VALID,1010.08,VALID,0,VALID,89.6789,VALID,0,VALID,22.3091,VALID,43,VALID,0,
2009-03-15, 01:35:04,VALID,1010.06,VALID,0,VALID,89.7017,VALID,0,VALID,22.3303,VALID,43,VALID,0,
2009-03-15, 01:36:04,VALID,1010.06,VALID,0,VALID,89.6789,VALID,0,VALID,22.3091,VALID,43,VALID,0,
2009-03-15, 01:37:04,VALID,1010.02,VALID,0,VALID,89.7017,VALID,0,VALID,22.2702,VALID,43,VALID,0,
2009-03-15, 01:38:04,VALID,1009.99,VALID,0,VALID,89.7017,VALID,0,VALID,22.2719,VALID,43,VALID,0,
2009-03-15, 01:39:04,VALID,1009.97,VALID,0,VALID,89.7017,VALID,0,VALID,22.2702,VALID,43,VALID,0,
2009-03-15, 01:40:04,VALID,1009.96,VALID,0,VALID,89.7017,VALID,0,VALID,22.2897,VALID,43,VALID,0,
2009-03-15, 01:41:04,VALID,1009.91,VALID,0,VALID,89.7246,VALID,0,VALID,22.2702,VALID,43,VALID,0,
2009-03-15, 01:42:04,VALID,1009.89,VALID,0,VALID,89.7094,VALID,0,VALID,22.2702,VALID,43,VALID,0,
2009-03-15, 01:43:04,VALID,1009.86,VALID,0,VALID,89.7322,VALID,0,VALID,22.2914,VALID,43,VALID,0,
2009-03-15, 01:44:04,VALID,1009.85,VALID,0,VALID,89.717,VALID,0,VALID,22.2897,VALID,43,VALID,0,
2009-03-15, 01:45:04,VALID,1009.8,VALID,0,VALID,89.7322,VALID,0,VALID,22.2702,VALID,43,VALID,0,
2009-03-15, 01:46:04,VALID,1009.77,VALID,0,VALID,89.7322,VALID,0,VALID,22.2914,VALID,43,VALID,0,
2009-03-15, 01:47:04,VALID,1009.71,VALID,0,VALID,89.7399,VALID,0,VALID,22.3108,VALID,43,VALID,0,
2009-03-15, 01:48:04,VALID,1009.71,VALID,0,VALID,89.7399,VALID,0,VALID,22.3108,VALID,43,VALID,0,
2009-03-15, 01:49:04,VALID,1009.7,VALID,0,VALID,89.7399,VALID,0,VALID,22.2897,VALID,43,VALID,0,
2009-03-15, 01:50:04,VALID,1009.69,VALID,0,VALID,89.7627,VALID,0,VALID,22.3108,VALID,43,VALID,0,
2009-03-15, 01:51:04,VALID,1009.7,VALID,0,VALID,89.7475,VALID,0,VALID,22.3108,VALID,43,VALID,0,
2009-03-15, 01:52:04,VALID,1009.68,VALID,0,VALID,89.7399,VALID,0,VALID,22.3108,VALID,43,VALID,0,
2009-03-15, 01:53:04,VALID,1009.72,VALID,0,VALID,89.7551,VALID,0,VALID,22.3303,VALID,43,VALID,0,
2009-03-15, 01:54:04,VALID,1009.71,VALID,0,VALID,89.7704,VALID,0,VALID,22.3108,VALID,43,VALID,0,
2009-03-15, 01:55:04,VALID,1009.72,VALID,0,VALID,89.778,VALID,0,VALID,22.2702,VALID,43,VALID,0,
2009-03-15, 01:56:04,VALID,1009.75,VALID,0,VALID,89.7932,VALID,0,VALID,22.2702,VALID,43,VALID,0,
2009-03-15, 01:57:04,VALID,1009.73,VALID,0,VALID,89.7704,VALID,0,VALID,22.2719,VALID,43,VALID,0,
2009-03-15, 01:58:04,VALID,1009.72,VALID,0,VALID,89.7932,VALID,0,VALID,22.2524,VALID,43,VALID,0,
2009-03-15, 01:59:04,VALID,1009.72,VALID,0,VALID,89.7856,VALID,0,VALID,22.2914,VALID,43,VALID,0,
2009-03-15, 02:00:04,VALID,1009.74,VALID,0,VALID,89.7704,VALID,0,VALID,22.2914,VALID,43,VALID,0,
2009-03-15, 02:01:04,VALID,1009.69,VALID,0,VALID,89.8009,VALID,0,VALID,22.2702,VALID,44,VALID,0,
2009-03-15, 02:02:04,VALID,1009.7,VALID,0,VALID,89.7932,VALID,0,VALID,22.2914,VALID,45,VALID,0,
2009-03-15, 02:03:04,VALID,1009.69,VALID,0,VALID,89.7932,VALID,0,VALID,22.2897,VALID,55,VALID,0,
2009-03-15, 02:04:04,VALID,1009.71,VALID,0,VALID,89.8085,VALID,0,VALID,22.3108,VALID,55,VALID,0,
2009-03-15, 02:05:04,VALID,1009.68,VALID,0,VALID,89.8161,VALID,0,VALID,22.3108,VALID,56,VALID,0,
2009-03-15, 02:06:04,VALID,1009.68,VALID,0,VALID,89.7856,VALID,0,VALID,22.3303,VALID,70,VALID,0,
2009-03-15, 02:07:04,VALID,1009.68,VALID,0,VALID,89.7932,VALID,0,VALID,22.3303,VALID,76,VALID,0,
2009-03-15, 02:08:04,VALID,1009.66,VALID,0,VALID,89.7932,VALID,0,VALID,22.3303,VALID,76,VALID,0,
2009-03-15, 02:09:04,VALID,1009.68,VALID,0,VALID,89.778,VALID,0,VALID,22.3303,VALID,76,VALID,0,
2009-03-15, 02:10:04,VALID,1009.69,VALID,0,VALID,89.7856,VALID,0,VALID,22.2897,VALID,76,VALID,0,
2009-03-15, 02:11:04,VALID,1009.64,VALID,0,VALID,89.7704,VALID,0,VALID,22.3108,VALID,76,VALID,0,
2009-03-15, 02:12:04,VALID,1009.65,VALID,0,VALID,89.778,VALID,0,VALID,22.3108,VALID,76,VALID,0,
2009-03-15, 02:13:04,VALID,1009.66,VALID,0,VALID,89.778,VALID,0,VALID,22.3303,VALID,76,VALID,0,
2009-03-15, 02:14:04,VALID,1009.68,VALID,0,VALID,89.7627,VALID,0,VALID,22.3693,VALID,75,VALID,0,
2009-03-15, 02:15:04,VALID,1009.7,VALID,0,VALID,89.7475,VALID,0,VALID,22.3693,VALID,75,VALID,0,
2009-03-15, 02:16:04,VALID,1009.69,VALID,0,VALID,89.7246,VALID,0,VALID,22.3693,VALID,72,VALID,0,
2009-03-15, 02:17:04,VALID,1009.7,VALID,0,VALID,89.7627,VALID,0,VALID,22.3498,VALID,72,VALID,0,
2009-03-15, 02:18:04,VALID,1009.68,VALID,0,VALID,89.7475,VALID,0,VALID,22.3498,VALID,72,VALID,0,
2009-03-15, 02:19:04,VALID,1009.68,VALID,0,VALID,89.7399,VALID,0,VALID,22.3481,VALID,54,VALID,0,
2009-03-15, 02:20:04,VALID,1009.68,VALID,0,VALID,89.7246,VALID,0,VALID,22.3498,VALID,45,VALID,0,
2009-03-15, 02:21:04,VALID,1009.67,VALID,0,VALID,89.7017,VALID,0,VALID,22.3303,VALID,45,VALID,0,
2009-03-15, 02:22:04,VALID,1009.69,VALID,0,VALID,89.7246,VALID,0,VALID,22.3303,VALID,50,VALID,0,
2009-03-15, 02:23:04,VALID,1009.67,VALID,0,VALID,89.7322,VALID,0,VALID,22.3091,VALID,51,VALID,0,
2009-03-15, 02:24:04,VALID,1009.64,VALID,0,VALID,89.7246,VALID,0,VALID,22.3303,VALID,59,VALID,0,
2009-03-15, 02:25:04,VALID,1009.64,VALID,0,VALID,89.7094,VALID,0,VALID,22.3108,VALID,59,VALID,0,
2009-03-15, 02:26:04,VALID,1009.66,VALID,0,VALID,89.717,VALID,0,VALID,22.2914,VALID,59,VALID,0,
2009-03-15, 02:27:04,VALID,1009.65,VALID,0,VALID,89.717,VALID,0,VALID,22.3108,VALID,59,VALID,0,
2009-03-15, 02:28:04,VALID,1009.64,VALID,0,VALID,89.717,VALID,0,VALID,22.2914,VALID,59,VALID,0,
2009-03-15, 02:29:04,VALID,1009.64,VALID,0,VALID,89.7017,VALID,0,VALID,22.2914,VALID,59,VALID,0,
2009-03-15, 02:30:04,VALID,1009.63,VALID,0,VALID,89.717,VALID,0,VALID,22.2914,VALID,59,VALID,0,
2009-03-15, 02:31:04,VALID,1009.63,VALID,0,VALID,89.717,VALID,0,VALID,22.2914,VALID,59,VALID,0,
2009-03-15, 02:32:04,VALID,1009.63,VALID,0,VALID,89.717,VALID,0,VALID,22.2914,VALID,59,VALID,0,
2009-03-15, 02:33:04,VALID,1009.63,VALID,0,VALID,89.7246,VALID,0,VALID,22.2507,VALID,59,VALID,0,
2009-03-15, 02:34:04,VALID,1009.64,VALID,0,VALID,89.7322,VALID,0,VALID,22.2524,VALID,59,VALID,0,
2009-03-15, 02:35:04,VALID,1009.63,VALID,0,VALID,89.7475,VALID,0,VALID,22.2312,VALID,59,VALID,0,
2009-03-15, 02:36:04,VALID,1009.64,VALID,0,VALID,89.7399,VALID,0,VALID,22.2719,VALID,59,VALID,0,
2009-03-15, 02:37:04,VALID,1009.62,VALID,0,VALID,89.7551,VALID,0,VALID,22.2524,VALID,59,VALID,0,
2009-03-15, 02:38:04,VALID,1009.65,VALID,0,VALID,89.7627,VALID,0,VALID,22.2524,VALID,59,VALID,0,
2009-03-15, 02:39:04,VALID,1009.66,VALID,0,VALID,89.7627,VALID,0,VALID,22.3108,VALID,75,VALID,0,
2009-03-15, 02:40:04,VALID,1009.64,VALID,0,VALID,89.7704,VALID,0,VALID,22.2914,VALID,74,VALID,0,
2009-03-15, 02:41:04,VALID,1009.64,VALID,0,VALID,89.7932,VALID,0,VALID,22.3108,VALID,74,VALID,0,
2009-03-15, 02:42:04,VALID,1009.65,VALID,0,VALID,89.7932,VALID,0,VALID,22.3108,VALID,74,VALID,0,
2009-03-15, 02:43:04,VALID,1009.64,VALID,0,VALID,89.7932,VALID,0,VALID,22.3108,VALID,74,VALID,0,
2009-03-15, 02:44:04,VALID,1009.66,VALID,0,VALID,89.8085,VALID,0,VALID,22.3108,VALID,74,VALID,0,
2009-03-15, 02:45:04,VALID,1009.66,VALID,0,VALID,89.8085,VALID,0,VALID,22.3108,VALID,74,VALID,0,
2009-03-15, 02:46:04,VALID,1009.69,VALID,0,VALID,89.8466,VALID,0,VALID,22.2914,VALID,74,VALID,0,
2009-03-15, 02:47:04,VALID,1009.71,VALID,0,VALID,89.8238,VALID,0,VALID,22.3108,VALID,74,VALID,0,
2009-03-15, 02:48:04,VALID,1009.7,VALID,0,VALID,89.8543,VALID,0,VALID,22.2914,VALID,74,VALID,0,
2009-03-15, 02:49:04,VALID,1009.72,VALID,0,VALID,89.8543,VALID,0,VALID,22.2914,VALID,74,VALID,0,
2009-03-15, 02:50:04,VALID,1009.71,VALID,0,VALID,89.8771,VALID,0,VALID,22.293,VALID,74,VALID,0,
2009-03-15, 02:51:04,VALID,1009.71,VALID,0,VALID,89.8848,VALID,0,VALID,22.2719,VALID,74,VALID,0,
2009-03-15, 02:52:04,VALID,1009.7,VALID,0,VALID,89.8924,VALID,0,VALID,22.2719,VALID,74,VALID,0,
2009-03-15, 02:53:04,VALID,1009.69,VALID,0,VALID,89.9153,VALID,0,VALID,22.2524,VALID,74,VALID,0,
2009-03-15, 02:54:04,VALID,1009.69,VALID,0,VALID,89.9229,VALID,0,VALID,22.2507,VALID,74,VALID,0,
2009-03-15, 02:55:04,VALID,1009.69,VALID,0,VALID,89.9153,VALID,0,VALID,22.2524,VALID,74,VALID,0,
2009-03-15, 02:56:04,VALID,1009.71,VALID,0,VALID,89.9381,VALID,0,VALID,22.2719,VALID,66,VALID,0,
2009-03-15, 02:57:04,VALID,1009.68,VALID,0,VALID,89.9381,VALID,0,VALID,22.2719,VALID,66,VALID,0,
2009-03-15, 02:58:04,VALID,1009.72,VALID,0,VALID,89.961,VALID,0,VALID,22.2524,VALID,66,VALID,0,
2009-03-15, 02:59:04,VALID,1009.73,VALID,0,VALID,89.9458,VALID,0,VALID,22.2524,VALID,66,VALID,0,
2009-03-15, 03:00:04,VALID,1009.73,VALID,0,VALID,89.961,VALID,0,VALID,22.2524,VALID,72,VALID,0,
2009-03-15, 03:01:04,VALID,1009.72,VALID,0,VALID,89.9763,VALID,0,VALID,22.2524,VALID,72,VALID,0,
2009-03-15, 03:02:04,VALID,1009.72,VALID,0,VALID,89.9839,VALID,0,VALID,22.2524,VALID,66,VALID,0,
2009-03-15, 03:03:04,VALID,1009.73,VALID,0,VALID,89.9839,VALID,0,VALID,22.2507,VALID,66,VALID,0,
2009-03-15, 03:04:04,VALID,1009.7,VALID,0,VALID,89.9991,VALID,0,VALID,22.2719,VALID,67,VALID,0,
2009-03-15, 03:05:04,VALID,1009.67,VALID,0,VALID,90.0144,VALID,0,VALID,22.2524,VALID,67,VALID,0,
2009-03-15, 03:06:04,VALID,1009.7,VALID,0,VALID,90.0144,VALID,0,VALID,22.2524,VALID,67,VALID,0,
2009-03-15, 03:07:04,VALID,1009.69,VALID,0,VALID,90.022,VALID,0,VALID,22.2524,VALID,67,VALID,0,
2009-03-15, 03:08:04,VALID,1009.7,VALID,0,VALID,90.0373,VALID,0,VALID,22.2524,VALID,67,VALID,0,
2009-03-15, 03:09:04,VALID,1009.69,VALID,0,VALID,90.0373,VALID,0,VALID,22.2524,VALID,67,VALID,0,
2009-03-15, 03:10:04,VALID,1009.71,VALID,0,VALID,90.022,VALID,0,VALID,22.2524,VALID,67,VALID,0,
2009-03-15, 03:11:04,VALID,1009.74,VALID,0,VALID,90.0678,VALID,0,VALID,22.2329,VALID,67,VALID,0,
2009-03-15, 03:12:04,VALID,1009.73,VALID,0,VALID,90.0602,VALID,0,VALID,22.2134,VALID,67,VALID,0,
2009-03-15, 03:13:04,VALID,1009.73,VALID,0,VALID,90.0602,VALID,0,VALID,22.2134,VALID,64,VALID,0,
2009-03-15, 03:14:04,VALID,1009.72,VALID,0,VALID,90.0602,VALID,0,VALID,22.2134,VALID,64,VALID,0,
2009-03-15, 03:15:04,VALID,1009.71,VALID,0,VALID,90.0678,VALID,0,VALID,22.1923,VALID,64,VALID,0,
2009-03-15, 03:16:04,VALID,1009.74,VALID,0,VALID,90.0907,VALID,0,VALID,22.2329,VALID,64,VALID,0,
2009-03-15, 03:17:04,VALID,1009.69,VALID,0,VALID,90.083,VALID,0,VALID,22.2118,VALID,64,VALID,0,
2009-03-15, 03:18:04,VALID,1009.7,VALID,0,VALID,90.0983,VALID,0,VALID,22.2329,VALID,64,VALID,0,
2009-03-15, 03:19:04,VALID,1009.66,VALID,0,VALID,90.0983,VALID,0,VALID,22.2329,VALID,64,VALID,0,
2009-03-15, 03:20:04,VALID,1009.65,VALID,0,VALID,90.1135,VALID,0,VALID,22.2134,VALID,64,VALID,0,
2009-03-15, 03:21:04,VALID,1009.68,VALID,0,VALID,90.1135,VALID,0,VALID,22.2134,VALID,64,VALID,0,
2009-03-15, 03:22:04,VALID,1009.66,VALID,0,VALID,90.1135,VALID,0,VALID,22.194,VALID,64,VALID,0,
2009-03-15, 03:23:04,VALID,1009.66,VALID,0,VALID,90.1364,VALID,0,VALID,22.194,VALID,64,VALID,0,
2009-03-15, 03:24:04,VALID,1009.66,VALID,0,VALID,90.1364,VALID,0,VALID,22.2134,VALID,63,VALID,0,
2009-03-15, 03:25:04,VALID,1009.67,VALID,0,VALID,90.1364,VALID,0,VALID,22.2134,VALID,63,VALID,0,
2009-03-15, 03:26:04,VALID,1009.68,VALID,0,VALID,90.1364,VALID,0,VALID,22.2134,VALID,63,VALID,0,
2009-03-15, 03:27:04,VALID,1009.69,VALID,0,VALID,90.144,VALID,0,VALID,22.2134,VALID,62,VALID,0,
2009-03-15, 03:28:04,VALID,1009.68,VALID,0,VALID,90.1517,VALID,0,VALID,22.2134,VALID,62,VALID,0,
2009-03-15, 03:29:04,VALID,1009.71,VALID,0,VALID,90.1517,VALID,0,VALID,22.2329,VALID,62,VALID,0,
2009-03-15, 03:30:04,VALID,1009.69,VALID,0,VALID,90.1669,VALID,0,VALID,22.1923,VALID,62,VALID,0,
2009-03-15, 03:31:04,VALID,1009.67,VALID,0,VALID,90.1974,VALID,0,VALID,22.2329,VALID,63,VALID,0,
2009-03-15, 03:32:04,VALID,1009.64,VALID,0,VALID,90.1822,VALID,0,VALID,22.2329,VALID,63,VALID,0,
2009-03-15, 03:33:04,VALID,1009.65,VALID,0,VALID,90.1898,VALID,0,VALID,22.2524,VALID,63,VALID,0,
2009-03-15, 03:34:04,VALID,1009.67,VALID,0,VALID,90.1974,VALID,0,VALID,22.2524,VALID,63,VALID,0,
2009-03-15, 03:35:04,VALID,1009.66,VALID,0,VALID,90.1974,VALID,0,VALID,22.2329,VALID,63,VALID,0,
2009-03-15, 03:36:04,VALID,1009.67,VALID,0,VALID,90.1974,VALID,0,VALID,22.2719,VALID,82,VALID,0.255078,
2009-03-15, 03:37:04,VALID,1009.71,VALID,0,VALID,90.1898,VALID,0,VALID,22.2897,VALID,69,VALID,0.428516,
2009-03-15, 03:38:04,VALID,1009.7,VALID,0,VALID,90.1974,VALID,0,VALID,22.3303,VALID,77,VALID,0.659375,
2009-03-15, 03:39:04,VALID,1009.71,VALID,0,VALID,90.2203,VALID,0,VALID,22.3303,VALID,88,VALID,0,
2009-03-15, 03:40:04,VALID,1009.74,VALID,0,VALID,90.205,VALID,0,VALID,22.3498,VALID,55,VALID,0,
2009-03-15, 03:41:04,VALID,1009.76,VALID,0,VALID,90.2203,VALID,0,VALID,22.3498,VALID,62,VALID,0.570313,
2009-03-15, 03:42:04,VALID,1009.76,VALID,0,VALID,90.205,VALID,0,VALID,22.3498,VALID,358,VALID,0.0640625,
2009-03-15, 03:43:04,VALID,1009.77,VALID,0,VALID,90.2127,VALID,0,VALID,22.3481,VALID,41,VALID,0,
2009-03-15, 03:44:04,VALID,1009.84,VALID,0,VALID,90.2127,VALID,0,VALID,22.3693,VALID,39,VALID,0,
2009-03-15, 03:45:04,VALID,1009.84,VALID,0,VALID,90.2127,VALID,0,VALID,22.3481,VALID,39,VALID,0,
2009-03-15, 03:46:04,VALID,1009.83,VALID,0,VALID,90.2203,VALID,0,VALID,22.3693,VALID,39,VALID,0,
2009-03-15, 03:47:04,VALID,1009.83,VALID,0,VALID,90.2355,VALID,0,VALID,22.3904,VALID,39,VALID,0,
2009-03-15, 03:48:04,VALID,1009.82,VALID,0,VALID,90.2203,VALID,0,VALID,22.3693,VALID,78,VALID,0.605859,
2009-03-15, 03:49:04,VALID,1009.81,VALID,0,VALID,90.2203,VALID,0,VALID,22.3693,VALID,79,VALID,0.217969,
2009-03-15, 03:50:04,VALID,1009.82,VALID,0,VALID,90.2203,VALID,0,VALID,22.3693,VALID,79,VALID,0,
2009-03-15, 03:51:04,VALID,1009.82,VALID,0,VALID,90.2432,VALID,0,VALID,22.3498,VALID,79,VALID,0,
2009-03-15, 03:52:04,VALID,1009.81,VALID,0,VALID,90.2279,VALID,0,VALID,22.3481,VALID,79,VALID,0,
2009-03-15, 03:53:04,VALID,1009.81,VALID,0,VALID,90.2355,VALID,0,VALID,22.3693,VALID,79,VALID,0,
2009-03-15, 03:54:04,VALID,1009.84,VALID,0,VALID,90.2355,VALID,0,VALID,22.3481,VALID,79,VALID,0,
2009-03-15, 03:55:04,VALID,1009.84,VALID,0,VALID,90.2432,VALID,0,VALID,22.3693,VALID,79,VALID,0.0117188,
2009-03-15, 03:56:04,VALID,1009.81,VALID,0,VALID,90.2279,VALID,0,VALID,22.3693,VALID,79,VALID,0,
2009-03-15, 03:57:04,VALID,1009.85,VALID,0,VALID,90.2355,VALID,0,VALID,22.3887,VALID,72,VALID,0.309766,
2009-03-15, 03:58:04,VALID,1009.83,VALID,0,VALID,90.2355,VALID,0,VALID,22.3676,VALID,72,VALID,0,
2009-03-15, 03:59:04,VALID,1009.82,VALID,0,VALID,90.2432,VALID,0,VALID,22.3887,VALID,72,VALID,0,
2009-03-15, 04:00:04,VALID,1009.82,VALID,0,VALID,90.2279,VALID,0,VALID,22.3887,VALID,72,VALID,0,
2009-03-15, 04:01:04,VALID,1009.8,VALID,0,VALID,90.2508,VALID,0,VALID,22.4082,VALID,72,VALID,0,